Hoquiam, WA
on Tuesday, December 25, 2012

Tuesday
Previous Day Next Day
Daily Summary
 ActualAverageRecord
Temperature
Mean Temperature °F 41°F  
Max Temperature 41°F 46°F 57°F (1980)
Min Temperature 33°F 37°F 27°F (1978)
Degree Days
Heating Degree Days 28 24  
Month to date heating degree days 587  
Cooling Degree Days 0 0  
Month to date cooling degree days 0  
Year to date cooling degree days 23  
Moisture
Dew Point 36°F   
Average Humidity 94    
Maximum Humidity 100    
Minimum Humidity 89    
Precipitation
Precipitation 0.69 in 0.33 in 1.95 in (1975)
Month to date precipitation 8.05  
Year to date precipitation 65.64  
Wind
Wind Speed 16 mph   
Max Wind Speed 23 mph   
Max Gust Speed 33 mph   
Visibility 6 miles   
Events Rain , Snow   

Key: T is trace of precipitation, MM is missing value
Source: NWS Daily Summary
Time(PST)TemperatureDew PointHumidity Pressure Visibility Wind DirectionWind SpeedGust SpeedPrecipitationEvents Conditions
12:53 AM 39.9°F 37.0°F 89% 29.99 in 8.0 miles ENE 9.2 mph - 0.02 in Rain Light Rain
1:53 AM 39.9°F 37.0°F 89% 29.94 in 7.0 miles ENE 11.5 mph - 0.03 in Rain Light Rain
2:34 AM 39.2°F 37.4°F 93% 29.89 in 7.0 miles ENE 15.0 mph - 0.01 in Rain Light Rain
2:53 AM 39.9°F 37.0°F 89% 29.89 in 7.0 miles ENE 18.4 mph 23.0 mph 0.03 in Rain Light Rain
3:53 AM 39.0°F 36.0°F 89% 29.84 in 5.0 miles ENE 19.6 mph 29.9 mph 0.04 in Rain Light Rain
4:53 AM 37.9°F 36.0°F 93% 29.79 in 5.0 miles ENE 17.3 mph 26.5 mph 0.09 in Rain Light Rain
5:27 AM 37.4°F 35.6°F 93% 29.75 in 6.0 miles ENE 17.3 mph 29.9 mph 0.05 in Rain Light Rain
5:48 AM 37.4°F 35.6°F 93% 29.73 in 7.0 miles ENE 18.4 mph 25.3 mph 0.08 in Rain Light Rain
5:53 AM 37.0°F 34.0°F 89% 29.74 in 6.0 miles ENE 20.7 mph 29.9 mph 0.08 in Rain Light Rain
6:14 AM 35.6°F 33.8°F 93% 29.71 in 4.0 miles ENE 19.6 mph 27.6 mph 0.05 in Snow Light Snow
6:20 AM 35.6°F 33.8°F 93% 29.71 in 2.5 miles ENE 19.6 mph 29.9 mph 0.07 in Snow Light Snow
6:45 AM 33.8°F 33.8°F 100% 29.69 in 1.8 miles ENE 21.9 mph 32.2 mph 0.12 in Snow Light Snow
6:53 AM 34.0°F 33.1°F 96% 29.69 in 1.8 miles ENE 20.7 mph 29.9 mph 0.13 in Snow Light Snow
7:03 AM 33.8°F 33.8°F 100% 29.67 in 2.0 miles ENE 20.7 mph 32.2 mph 0.02 in Snow Light Snow
7:08 AM 33.8°F 33.8°F 100% 29.67 in 3.0 miles NE 20.7 mph 32.2 mph 0.03 in Snow Light Snow
7:53 AM 35.1°F 33.1°F 92% 29.66 in 4.0 miles NE 21.9 mph 33.4 mph 0.08 in Snow Light Snow
8:07 AM 35.6°F 33.8°F 93% 29.64 in 3.0 miles ENE 20.7 mph 31.1 mph 0.01 in Snow Light Snow
8:34 AM 35.6°F 33.8°F 93% 29.63 in 3.0 miles ENE 23.0 mph 29.9 mph 0.03 in Snow Light Snow
8:53 AM 35.1°F 33.1°F 92% 29.64 in 3.0 miles ENE 19.6 mph 28.8 mph 0.05 in Snow Light Snow
9:10 AM 35.6°F 33.8°F 93% 29.62 in 2.5 miles ENE 20.7 mph 28.8 mph 0.01 in Snow Light Snow
9:17 AM 35.6°F 33.8°F 93% 29.62 in 3.0 miles ENE 18.4 mph 28.8 mph 0.01 in Snow Light Snow
9:25 AM 33.8°F 33.8°F 100% 29.62 in 2.0 miles ENE 18.4 mph 25.3 mph 0.02 in Snow Light Snow
9:43 AM 35.6°F 33.8°F 93% 29.62 in 3.0 miles ENE 19.6 mph 25.3 mph 0.04 in Rain Light Rain
9:49 AM 35.6°F 33.8°F 93% 29.62 in 4.0 miles ENE 18.4 mph 27.6 mph 0.05 in Rain Light Freezing Rain
9:53 AM 35.1°F 33.1°F 92% 29.63 in 3.0 miles ENE 19.6 mph 27.6 mph 0.06 in Rain Light Freezing Rain
10:02 AM 35.6°F 33.8°F 93% 29.62 in 2.5 miles NE 17.3 mph - 0.02 in Rain Light Freezing Rain
10:10 AM 35.6°F 33.8°F 93% 29.62 in 5.0 miles NE 19.6 mph 29.9 mph 0.03 in Rain Light Freezing Rain
10:14 AM 35.6°F 33.8°F 93% 29.62 in 7.0 miles NE 18.4 mph 29.9 mph 0.03 in Rain Light Rain
10:21 AM 35.6°F 33.8°F 93% 29.62 in 10.0 miles NE 20.7 mph 28.8 mph 0.03 in Rain Light Freezing Rain
10:53 AM 36.0°F 34.0°F 93% 29.62 in 4.0 miles NE 23.0 mph 29.9 mph 0.04 in Rain Light Freezing Rain
11:53 AM 37.0°F 35.1°F 93% 29.61 in 9.0 miles NE 20.7 mph 29.9 mph 0.00 in   Overcast
12:53 PM 37.9°F 36.0°F 93% 29.61 in 9.0 miles NE 13.8 mph - 0.02 in Rain Light Rain
1:53 PM 39.0°F 37.0°F 93% 29.60 in 9.0 miles NE 16.1 mph - 0.00 in Rain Light Rain
2:53 PM 39.0°F 37.0°F 93% 29.60 in 10.0 miles NE 15.0 mph - 0.00 in   Overcast
3:53 PM 39.9°F 37.9°F 93% 29.60 in 10.0 miles NE 15.0 mph - 0.00 in   Overcast
4:25 PM 39.2°F 37.4°F 93% 29.59 in 10.0 miles NE 13.8 mph - 0.01 in Rain Light Rain
4:53 PM 39.9°F 39.0°F 97% 29.60 in 9.0 miles ENE 12.7 mph - 0.01 in Rain Light Rain
5:04 PM 41.0°F 39.2°F 93% 29.59 in 10.0 miles ENE 12.7 mph - 0.00 in Rain Light Rain
5:53 PM 41.0°F 39.0°F 93% 29.61 in 10.0 miles ENE 12.7 mph - 0.01 in   Overcast
6:53 PM 39.9°F 39.0°F 97% 29.62 in 10.0 miles NE 10.4 mph - N/A   Overcast
7:53 PM 39.9°F 39.0°F 97% 29.63 in 10.0 miles ENE 11.5 mph - N/A   Overcast
8:53 PM 41.0°F 39.0°F 93% 29.64 in 10.0 miles ENE 10.4 mph - N/A   Overcast
9:04 PM 41.0°F 39.2°F 93% 29.63 in 10.0 miles ENE 11.5 mph - N/A   Overcast
9:11 PM 41.0°F 39.2°F 93% 29.64 in 10.0 miles ENE 8.1 mph - N/A   Overcast
9:53 PM 39.9°F 37.9°F 93% 29.66 in 10.0 miles ENE 8.1 mph - N/A   Mostly Cloudy
10:00 PM 39.2°F 37.4°F 93% 29.65 in 10.0 miles ENE 9.2 mph - N/A   Mostly Cloudy
10:53 PM 39.9°F 39.0°F 97% 29.67 in 10.0 miles ENE 8.1 mph - N/A   Overcast
11:53 PM 39.9°F 39.0°F 97% 29.68 in 10.0 miles ENE 10.4 mph - 0.00 in   Overcast
Moon Phase
Dec. 25 Dec. 28 Jan. 04 Jan. 11 Jan. 18
Sunrise:08:00 AM (PST) Moon Rise:02:46 PM (PST)12/25
Sunset:04:32 PM (PST) Moon Set:05:34 AM (PST)12/25

Copyright © 2014 The Weather Underground, Inc.